[[{"header":{"parameterUnit":"m.s-1","parameterCategory":1,"la1":30.2992,"la2":30.254,"lo1":-89.0895,"lo2":-89.0443,"dy":0.0025,"dx":0.0025,"nx":19,"ny":19,"refTime":"2026-05-24T09:00:00:Z","depth":0,"parameterNumber":2,"parameterNumberName":"U-component_of_WINDS"},"data":[0,0,0,0.7721,0.7722,0.7756,0.7756,0.7787,0.7787,0,0,0,0,0,0,0,0,0,0,0,0.7703,0.7703,0.7721,0.7722,0.7756,0.7756,0.7787,0.7787,0,0,0,0,0,0,0,0,0,0,0,0.7703,0.7703,0.7703,0.7722,0.7756,0.7756,0.7787,0.7766,0,0,0,0,0,0,0,0,0,0,0.7736,0.7711,0.7703,0.7703,0.7722,0.7756,0.7756,0.7765,0.7768,0.7767,0,0.7763,0,0.7775,0.7789,0.7789,0,0,0,0.7728,0.7709,0.7725,0.7703,0.7722,0.7756,0.7742,0.7767,0.7769,0.7769,0.7763,0.7765,0.7776,0.7789,0.7789,0.7761,0.776,0,0,0.7726,0.7705,0.7723,0.7726,0.7719,0.7741,0.7743,0.7768,0.7761,0.7764,0.7766,0.7777,0.7789,0.7789,0.7761,0.7761,0,0,0,0.7717,0.7704,0.772,0.7725,0.7731,0.7742,0.7744,0.776,0.7767,0.7766,0.7777,0.7789,0.7789,0.7762,0.7761,0.7719,0,0,0,0.7716,0.7698,0.7719,0.7706,0.7731,0.7746,0.7735,0.7765,0.7769,0.7777,0.7789,0.7789,0.7762,0.7761,0.7721,0.7702,0,0,0,0.7704,0.7697,0.7699,0.7705,0.7718,0.7746,0.7755,0.7766,0.7775,0.7789,0.779,0.7763,0.7762,0.7723,0.7706,0.7689,0,0,0,0.7685,0.7661,0.7698,0.7675,0.7718,0.7719,0.7755,0.7757,0.7764,0.7789,0.7762,0.7761,0.7724,0.7708,0.769,0.767,0.7659,0,0,0.7643,0.7655,0.7644,0.7678,0.7667,0.7716,0.77,0.7727,0.7748,0.7756,0.7755,0.772,0.7706,0.7689,0.7609,0.76,0,0,0,0.7623,0.7615,0.7616,0.7622,0.7641,0.7657,0.7689,0.7699,0.7706,0.7747,0.771,0.7702,0.7693,0.7685,0.7677,0.7671,0.7756,0.7756,0.7756,0.7533,0.7561,0.7544,0.7576,0.7581,0.7614,0.7621,0.764,0.7668,0.7658,0.7661,0.7608,0.7597,0.7592,0.7585,0.7652,0.7652,0.7652,0.7652,0.7474,0.7466,0.7503,0.7499,0.7529,0.7527,0.7558,0.7577,0.758,0.7609,0.7602,0.7631,0.7582,0.7577,0.7649,0.765,0.765,0.765,0.7651,0.7418,0.7419,0.7431,0.7442,0.7447,0.7481,0.7482,0.751,0.7536,0.753,0.7535,0.7536,0.754,0.753,0.753,0.753,0.753,0.753,0.753,0.7354,0.737,0.7366,0.7385,0.7392,0.7406,0.7439,0.7447,0.7463,0.7484,0.7484,0.7512,0.7572,0.7586,0.7527,0.7527,0.7528,0.7528,0.7528,0.7283,0.7304,0.7298,0.7305,0.733,0.7334,0.7369,0.7384,0.7395,0.7394,0.7424,0.7464,0.7479,0.7485,0.7497,0.7418,0.7418,0.7418,0.7418,0.7236,0.7246,0.7247,0.7256,0.7269,0.7301,0.7295,0.732,0.7351,0.7359,0.7375,0.7393,0.7398,0.741,0.7418,0.7429,0.7336,0.7336,0.7336,0.7194,0.7206,0.7195,0.7224,0.7246,0.7264,0.7259,0.7269,0.7308,0.7333,0.7367,0.737,0.74,0.7409,0.7433,0.7445,0.7466,0,0]},{"header":{"parameterUnit":"m.s-1","parameterCategory":1,"la1":30.2992,"la2":30.254,"lo1":-89.0895,"lo2":-89.0443,"dy":0.0025,"dx":0.0025,"nx":19,"ny":19,"refTime":"2026-05-24T09:00:00:Z","depth":0,"parameterNumber":3,"parameterNumberName":"V-component_of_WINDS"},"data":[0,0,0,0.544,0.5442,0.5529,0.553,0.5626,0.5627,0,0,0,0,0,0,0,0,0,0,0,0.5406,0.5406,0.544,0.5442,0.5529,0.553,0.5626,0.5627,0,0,0,0,0,0,0,0,0,0,0,0.5406,0.5406,0.5407,0.5442,0.5529,0.553,0.5626,0.5565,0,0,0,0,0,0,0,0,0,0,0.5483,0.5443,0.5406,0.5407,0.5443,0.5529,0.553,0.5563,0.5569,0.558,0,0.5589,0,0.5609,0.5632,0.5633,0,0,0,0.5448,0.5438,0.5469,0.5407,0.5443,0.5529,0.5492,0.5566,0.5574,0.5589,0.559,0.5594,0.5611,0.5633,0.5633,0.5676,0.5676,0,0,0.5443,0.5417,0.5464,0.5473,0.546,0.5489,0.5494,0.5571,0.5571,0.5591,0.5597,0.5612,0.5634,0.5634,0.5677,0.5676,0,0,0,0.5425,0.5414,0.5443,0.5469,0.5486,0.5491,0.5498,0.5567,0.5579,0.5598,0.5613,0.5634,0.5635,0.5677,0.5676,0.5646,0,0,0,0.5423,0.5403,0.5441,0.5425,0.5484,0.5528,0.5492,0.5574,0.5583,0.5613,0.5634,0.5636,0.5677,0.5677,0.5647,0.5636,0,0,0,0.5403,0.5401,0.5411,0.5424,0.546,0.5527,0.5544,0.5577,0.5593,0.5633,0.5636,0.5677,0.5677,0.5648,0.5638,0.5639,0,0,0,0.5375,0.5383,0.541,0.5425,0.5459,0.5507,0.5544,0.5581,0.5612,0.5634,0.5677,0.5677,0.5648,0.5639,0.5639,0.5635,0.563,0,0,0.5371,0.5382,0.5393,0.5419,0.5456,0.5496,0.5528,0.5582,0.561,0.5652,0.5654,0.5647,0.5638,0.5639,0.5614,0.5611,0,0,0,0.5383,0.539,0.5406,0.5434,0.5474,0.5507,0.5558,0.5577,0.5614,0.5626,0.5648,0.5644,0.5645,0.5644,0.5641,0.5643,0.5675,0.5675,0.5675,0.5341,0.5375,0.5395,0.5439,0.5465,0.5516,0.554,0.5574,0.5602,0.5606,0.5619,0.56,0.5598,0.5596,0.5598,0.562,0.5619,0.5619,0.5619,0.5339,0.5354,0.5388,0.542,0.5455,0.5482,0.553,0.5548,0.5577,0.5594,0.5597,0.5613,0.5591,0.5594,0.5617,0.5618,0.5618,0.5618,0.5618,0.5315,0.5329,0.5351,0.5392,0.542,0.5463,0.5489,0.552,0.555,0.5553,0.5569,0.557,0.5574,0.5558,0.5558,0.5558,0.5558,0.5558,0.5558,0.5282,0.5308,0.5326,0.5367,0.5387,0.5418,0.5467,0.5487,0.5518,0.5539,0.5539,0.5565,0.5582,0.5586,0.5557,0.5557,0.5557,0.5558,0.5558,0.5268,0.5275,0.5303,0.5323,0.5372,0.5396,0.5434,0.5473,0.5494,0.5505,0.553,0.5538,0.5552,0.5554,0.5557,0.5523,0.5523,0.5523,0.5523,0.5248,0.5257,0.5291,0.532,0.5353,0.539,0.5417,0.5454,0.5493,0.5508,0.5517,0.5523,0.5525,0.5538,0.5541,0.5544,0.5508,0.5508,0.5508,0.524,0.5253,0.5272,0.531,0.535,0.5382,0.5409,0.544,0.5486,0.5508,0.552,0.552,0.5531,0.5533,0.5556,0.5561,0.5567,0,0]}]]